EAG5511 SBSP-SBCF

Flight info

Callsign EAG5511
Flight time N/A
Altitude 41000
Route NUXEL UZ23 KIBAP
Aircraft C700/M-SBDGHM1RWXY/LB2

Departure

Time N/A
Airport Congonhas–Deputado Freitas Nobre Airport (SBSP)

Arrival

Time 2026-05-03 20:46
Airport Tancredo Neves International Airport (SBCF)
Time Latitude Longitude Altitude Speed Heading
2026-05-03 20:15 -21.79950 -45.40525 35981 ft 461 kts 38°
2026-05-03 20:15 -21.77442 -45.38375 35613 ft 462 kts 38°
2026-05-03 20:15 -21.74928 -45.36219 35247 ft 462 kts 38°
2026-05-03 20:15 -21.72410 -45.34063 34881 ft 463 kts 38°
2026-05-03 20:16 -21.69891 -45.31905 34510 ft 464 kts 38°
2026-05-03 20:16 -21.67366 -45.29744 34140 ft 464 kts 38°
2026-05-03 20:16 -21.64836 -45.27580 33766 ft 465 kts 38°
2026-05-03 20:16 -21.62301 -45.25411 33397 ft 466 kts 38°
2026-05-03 20:17 -21.59795 -45.23270 33034 ft 467 kts 38°
2026-05-03 20:17 -21.57253 -45.21097 32662 ft 468 kts 38°
2026-05-03 20:17 -21.54700 -45.18917 32291 ft 469 kts 38°
2026-05-03 20:17 -21.52147 -45.16737 31916 ft 470 kts 38°
2026-05-03 20:18 -21.49583 -45.14550 31543 ft 471 kts 38°
2026-05-03 20:18 -21.47017 -45.12363 31170 ft 472 kts 38°
2026-05-03 20:18 -21.44447 -45.10170 30794 ft 472 kts 38°
2026-05-03 20:18 -21.41873 -45.07979 30419 ft 473 kts 38°
2026-05-03 20:19 -21.39302 -45.05788 30042 ft 472 kts 38°
2026-05-03 20:19 -21.36732 -45.03600 29666 ft 470 kts 38°
2026-05-03 20:19 -21.34178 -45.01428 29293 ft 468 kts 38°
2026-05-03 20:19 -21.31665 -44.99290 28926 ft 466 kts 38°
2026-05-03 20:20 -21.29132 -44.97137 28556 ft 463 kts 38°
2026-05-03 20:20 -21.26617 -44.95000 28189 ft 460 kts 38°
2026-05-03 20:20 -21.24116 -44.92875 27823 ft 457 kts 38°
2026-05-03 20:20 -21.21631 -44.90768 27455 ft 455 kts 38°
2026-05-03 20:21 -21.19158 -44.88667 27092 ft 452 kts 38°
2026-05-03 20:21 -21.16702 -44.86585 26740 ft 449 kts 38°
2026-05-03 20:21 -21.14241 -44.84498 26382 ft 460 kts 38°
2026-05-03 20:21 -21.11735 -44.82374 26022 ft 466 kts 38°
2026-05-03 20:22 -21.09188 -44.80216 25650 ft 468 kts 38°
2026-05-03 20:22 -21.06636 -44.78053 25280 ft 466 kts 38°
2026-05-03 20:22 -21.04067 -44.75952 24905 ft 464 kts 35°
2026-05-03 20:22 -21.01434 -44.73962 24539 ft 462 kts 35°
2026-05-03 20:23 -20.98819 -44.71975 24173 ft 460 kts 35°
2026-05-03 20:23 -20.96230 -44.69980 23801 ft 458 kts 36°
2026-05-03 20:23 -20.93650 -44.68000 23445 ft 455 kts 35°
2026-05-03 20:23 -20.91111 -44.66071 23087 ft 452 kts 35°
2026-05-03 20:24 -20.88558 -44.64125 22726 ft 450 kts 35°
2026-05-03 20:24 -20.86016 -44.62183 22371 ft 448 kts 35°
2026-05-03 20:24 -20.83485 -44.60252 22016 ft 446 kts 35°
2026-05-03 20:24 -20.80946 -44.58369 21659 ft 443 kts 32°
2026-05-03 20:25 -20.78185 -44.56935 21305 ft 441 kts 21°
2026-05-03 20:25 -20.75259 -44.55994 20957 ft 438 kts 13°
2026-05-03 20:25 -20.72305 -44.55211 20614 ft 436 kts 14°
2026-05-03 20:25 -20.69417 -44.54411 20273 ft 434 kts 14°
2026-05-03 20:26 -20.66501 -44.53613 19929 ft 431 kts 14°
2026-05-03 20:26 -20.63595 -44.52834 19586 ft 429 kts 14°
2026-05-03 20:26 -20.60935 -44.52114 19272 ft 427 kts 14°
2026-05-03 20:26 -20.58068 -44.51332 18934 ft 424 kts 14°
2026-05-03 20:27 -20.55212 -44.50559 18597 ft 422 kts 14°
2026-05-03 20:27 -20.52374 -44.49790 18263 ft 420 kts 14°
2026-05-03 20:27 -20.49550 -44.49026 17929 ft 417 kts 14°
2026-05-03 20:27 -20.46740 -44.48263 17597 ft 416 kts 14°
2026-05-03 20:28 -20.43939 -44.47506 17267 ft 414 kts 14°
2026-05-03 20:28 -20.41190 -44.46763 16943 ft 412 kts 14°
2026-05-03 20:28 -20.38421 -44.46012 16617 ft 410 kts 14°
2026-05-03 20:28 -20.35660 -44.45267 16291 ft 409 kts 14°
2026-05-03 20:29 -20.32908 -44.44518 15966 ft 407 kts 14°
2026-05-03 20:29 -20.30170 -44.43768 15643 ft 405 kts 14°
2026-05-03 20:29 -20.27445 -44.43029 15387 ft 402 kts 14°
2026-05-03 20:29 -20.24732 -44.42292 15190 ft 402 kts 14°
2026-05-03 20:30 -20.22025 -44.41555 14938 ft 401 kts 14°
2026-05-03 20:30 -20.19366 -44.40834 14639 ft 399 kts 14°
2026-05-03 20:30 -20.16688 -44.40105 14326 ft 396 kts 14°
2026-05-03 20:30 -20.14019 -44.39381 14012 ft 395 kts 14°
2026-05-03 20:31 -20.11357 -44.38658 13698 ft 394 kts 14°
2026-05-03 20:31 -20.08712 -44.37943 13386 ft 391 kts 14°
2026-05-03 20:31 -20.06083 -44.37227 13075 ft 389 kts 14°
2026-05-03 20:31 -20.03466 -44.36518 12767 ft 388 kts 14°
2026-05-03 20:32 -20.00855 -44.35813 12459 ft 386 kts 14°
2026-05-03 20:32 -19.98263 -44.35110 12153 ft 384 kts 14°
2026-05-03 20:32 -19.95675 -44.34412 11774 ft 383 kts 14°
2026-05-03 20:32 -19.93143 -44.33727 11434 ft 379 kts 14°
2026-05-03 20:33 -19.90594 -44.33037 11123 ft 377 kts 14°
2026-05-03 20:33 -19.88054 -44.32354 10821 ft 376 kts 14°
2026-05-03 20:33 -19.85548 -44.31675 10527 ft 363 kts 14°
2026-05-03 20:33 -19.83193 -44.31037 10243 ft 336 kts 14°
2026-05-03 20:34 -19.81006 -44.30449 9981 ft 314 kts 14°
2026-05-03 20:34 -19.78951 -44.29894 9741 ft 296 kts 14°
2026-05-03 20:34 -19.77004 -44.29357 9503 ft 283 kts 16°
2026-05-03 20:34 -19.75247 -44.28465 9275 ft 280 kts 31°
2026-05-03 20:35 -19.73605 -44.27402 9063 ft 281 kts 30°
2026-05-03 20:35 -19.71910 -44.26365 8838 ft 281 kts 30°
2026-05-03 20:35 -19.70224 -44.25314 8625 ft 281 kts 30°
2026-05-03 20:35 -19.68546 -44.24254 8405 ft 280 kts 30°
2026-05-03 20:36 -19.66870 -44.23201 8180 ft 280 kts 30°
2026-05-03 20:36 -19.65193 -44.22157 7965 ft 279 kts 28°
2026-05-03 20:36 -19.63464 -44.21231 7742 ft 278 kts 26°
2026-05-03 20:36 -19.61736 -44.20313 7522 ft 277 kts 26°
2026-05-03 20:37 -19.60045 -44.19395 7306 ft 276 kts 26°
2026-05-03 20:37 -19.58334 -44.18473 7086 ft 275 kts 26°
2026-05-03 20:37 -19.56566 -44.17892 6872 ft 261 kts
2026-05-03 20:37 -19.54929 -44.18442 6863 ft 242 kts 323°
2026-05-03 20:38 -19.53833 -44.19703 6863 ft 225 kts 307°
2026-05-03 20:38 -19.52838 -44.20918 6859 ft 212 kts 314°
2026-05-03 20:38 -19.51769 -44.21929 6854 ft 201 kts 327°
2026-05-03 20:38 -19.50458 -44.22165 6853 ft 196 kts 15°
2026-05-03 20:39 -19.49391 -44.21287 6862 ft 201 kts 56°
2026-05-03 20:39 -19.48966 -44.19921 6861 ft 197 kts 91°
2026-05-03 20:39 -19.49138 -44.18529 6858 ft 186 kts 99°
2026-05-03 20:39 -19.49281 -44.17191 6862 ft 180 kts 94°
2026-05-03 20:40 -19.49364 -44.15870 6860 ft 180 kts 94°
2026-05-03 20:40 -19.49449 -44.14532 6724 ft 186 kts 94°
2026-05-03 20:40 -19.49528 -44.13160 6484 ft 187 kts 94°
2026-05-03 20:40 -19.49610 -44.11818 6252 ft 179 kts 94°
2026-05-03 20:41 -19.49687 -44.10516 6014 ft 174 kts 95°
2026-05-03 20:41 -19.50050 -44.09351 5780 ft 167 kts 123°
2026-05-03 20:41 -19.50841 -44.08533 5564 ft 153 kts 141°
2026-05-03 20:41 -19.51592 -44.07801 5383 ft 145 kts 137°
2026-05-03 20:42 -19.52358 -44.07073 5191 ft 146 kts 140°
2026-05-03 20:42 -19.53135 -44.06371 4995 ft 147 kts 139°
2026-05-03 20:42 -19.53894 -44.05645 4798 ft 147 kts 140°
2026-05-03 20:42 -19.54675 -44.04947 4603 ft 147 kts 140°
2026-05-03 20:43 -19.55420 -44.04231 4406 ft 143 kts 139°
2026-05-03 20:43 -19.56171 -44.03556 4275 ft 139 kts 140°
2026-05-03 20:43 -19.56896 -44.02868 4159 ft 142 kts 138°
2026-05-03 20:43 -19.57639 -44.02188 3972 ft 141 kts 141°
2026-05-03 20:44 -19.58375 -44.01503 3785 ft 140 kts 138°
2026-05-03 20:44 -19.59099 -44.00814 3616 ft 139 kts 139°
2026-05-03 20:44 -19.59836 -44.00141 3439 ft 140 kts 140°
2026-05-03 20:44 -19.60566 -43.99471 3293 ft 138 kts 139°
2026-05-03 20:45 -19.61291 -43.98792 3108 ft 139 kts 139°
2026-05-03 20:45 -19.62009 -43.98136 2888 ft 134 kts 140°
2026-05-03 20:45 -19.62644 -43.97546 2749 ft 107 kts 140°
2026-05-03 20:45 -19.63105 -43.97123 2748 ft 70 kts 139°
2026-05-03 20:46 -19.63393 -43.96856 2745 ft 32 kts 139°
2026-05-03 20:46 -19.63534 -43.96712 2746 ft 24 kts 118°
2026-05-03 20:46 -19.63602 -43.96550 2746 ft 24 kts 111°
2026-05-03 20:46 -19.63637 -43.96386 2747 ft 19 kts 71°
2026-05-03 20:47 -19.63538 -43.96317 2747 ft 18 kts 28°
2026-05-03 20:47 -19.63458 -43.96314 2747 ft 9 kts 292°
2026-05-03 20:47 -19.63433 -43.96383 2748 ft 11 kts 271°
2026-05-03 20:47 -19.63468 -43.96442 2747 ft 10 kts 229°
2026-05-03 20:48 -19.63475 -43.96450 2747 ft 0 kts 229°